GONETS D1 1

Satellite information

Favourite Embed

Satellite Type and Status

PAYLOADIN ORBIT

Key statistics

Satellite GONETS D1 1 at a glance.

Uptime

10843

Days in orbit

Revolutions

≈ 12.6

Per day

Orbit

LEO

Low Earth Orbit

Inclination

82.6

Latest

Satellite identification and parameters

Extended collection of information and parameters for GONETS D1 1.

Object identification

Identified? True

Debris? False

Object name: GONETS D1 1

International designator: 1996-009A

Object number (NORAD): 23787

Object ID (CCSDS): 23787

Country: COMMONWEALTH OF INDEPENDENT STATES (CIS)

Current information (Y/N): Y

RCS size: MEDIUM

Orbital parameters

Period: 113.915 minutes

Inclination: 82.5731 deg

SMA: 7784.205 km

Apoapsis: 1414.532 km

Periapsis: 1397.608 km

RAAN: 88.2897 deg

Eccentricy: 0.00108706

Argument of periapsis: 208.6279 deg

Mean anomaly: 266.5166 deg

Mean motion: 12.64099868 rev/day

Mean motion (dot): 0.00000032 rev/day2

B* drag term: 0.0001195019 1/REarth

Two-line elements (TLE)

Creation date: Oct. 27, 2025, 2:46 a.m.

Reference frame: TEME

Reference center: EARTH

Epoch: Oct. 26, 2025, 9:34 p.m. UTC

TLE line 0: 0 GONETS D1 1

TLE line 1: 1 23787U 96009A 25299.89894962 .00000032 00000-0 11950-3 0 9997

TLE line 2: 2 23787 82.5731 88.2897 0010871 208.6279 266.5166 12.64099868369832

Live tracking on map

Real-time ground track for satellite GONETS D1 1.

In-orbit conjunctions

There are no conjunctions computed for GONETS D1 1, at the moment. Check back to stay up to date, as we update our databases every day.

Go to all conjunctions

Associated space launch

Gonets- satellite were the civilian derivate of the military Strela-3 satellite system. The Gonets system was offered to support international health organizations to meet their global communications needs for the transfer of medical data and records to remote sites. Strela-3 was the second generation of Russian strategic store-dump military communications satellite. Development of this generation to replace the first generation Strela-1M and Strela-2M satellites began in 1973.

GONETS D1 1 was lifted into orbit during the mission ‘Tsiklon-3 | Gonets-D 319 to 321 & Strela-3 113 to 115’, on board a Tsiklon-3 space rocket.

The launch took place on Feb. 19, 1996, 12:58 a.m. from 32/1.

For more information about the launch, click the button.

Launch to space Tsiklon-3 | Gonets-D 319 to 321 & Strela-3 113 to 115
Tsiklon-3 | Gonets-D 319 to 321 & Strela-3 113 to 115

Agency: N/A

Status: Launch Successful

Launch date: Feb. 19, 1996, 12:58 a.m. UTC

Rocket: Tsiklon-3

Launch pad: 32/1

Location: Plesetsk Cosmodrome, Russian Federation

...

Latest news about this satellite

There are no fresh news available about this satellite. Check back as we update our databases every day.


Newsletter sign-up

Weekly statistics, charts and insights to help you stay on top of the space industry.